Regional Weather Roundup
Issued by NWS Sterling, VA

Home | Current Version | Previous Version | Text Only | Print | Product List | Glossary Off
Versions: 1 2 3 4 5 6 7 8 9 10 11 12 13 14 15 16 17 18 19 20 21 22 23 24 25 26 27 28 29 30 31 32 33 34 35 36 37 38 39 40 41 42 43 44 45 46 47 48 49 50

000
ASUS41 KLWX 281910
RWRLWX

REGIONAL WEATHER ROUNDUP
NATIONAL WEATHER SERVICE BALTIMORE MD/WASHINGTON DC
300 PM EDT MON JUL 28 2014

Note: "FAIR" indicates few or no clouds below 12,000 feet
with no significant weather and/or obstructions to visibility.
 TC=TEMPERATURE CELSIUS

 * =Non NWS site. Station does not report precipitation (e.g. rain,
    snow, etc.), thunder, or fog.

DCZ001-MDZ009-015-VAZ040>042-051-053>054-282000-
WASHINGTON METRO
  /KDAA//-FT BELVOIR

CITY           SKY/WX    TMP DP  RH WIND       PRES   REMARKS
WASHINGTON NAT PTSUNNY   84  55  37 W22G30    29.69R
DULLES         PTSUNNY   78  54  43 W18G29    29.70S
ANDREWS AFB    MOSUNNY   83  58  42 NW22G30   29.68R
COLLEGE PARK*  SUNNY     82  55  39 W17G24    29.67R
LEESBURG*      CLOUDY    77  61  57 W16G28    29.71S
MANASSAS*      PTSUNNY   81  57  44 NW14G22   29.70
GAITHERSBURG*  PTSUNNY   75  57  53 W14G24    29.73R

$$

MDZ006>007-011-014-282000-
BALTIMORE METRO

CITY           SKY/WX    TMP DP  RH WIND       PRES   REMARKS
BWI AIRPORT    MOSUNNY   86  54  33 W20G37    29.64S
MD SCIENCE CTR   N/A     84  54  35 MISG      29.64S
MARTIN STATE   MOSUNNY   84  57  39 W17G30    29.65S
ANNAPOLIS      MOSUNNY   84  56  38 W15G28    29.65S
FORT MEADE*    PTSUNNY   81  57  44 W20G29    29.68R

$$

MDZ012-015-019>023-282000-
MARYLAND EASTERN SHORE

CITY           SKY/WX    TMP DP  RH WIND       PRES   REMARKS
OCEAN CITY     MOSUNNY   86  61  42 W14       29.65R
SALISBURY      PTSUNNY   86  57  37 W17G24    29.66
BAY BRIDGE AP*   N/A     82  54  36 W12G18    29.65S
CAMBRIDGE*     SUNNY     84  57  39 SW12      29.66S
EASTON*        MOSUNNY   86  61  42 W13G24    29.69S

$$

MDZ017>025-282000-
SOUTHERN MARYLAND

CITY           SKY/WX    TMP DP  RH WIND       PRES   REMARKS
PATUXENT RIVER MOSUNNY   86  58  38 W13G25    29.67S
ST INIGOES     MOSUNNY   84  60  44 W16G23    29.68S
LEONARDTOWN*   MOSUNNY   82  55  39 W14G20    29.70S

$$

MDZ003>005-282000-
NORTH CENTRAL MARYLAND

CITY           SKY/WX    TMP DP  RH WIND       PRES   REMARKS
FREDERICK*     PTSUNNY   79  63  57 MISG      29.70S
HAGERSTOWN APT PTSUNNY   78  56  46 W14       29.68S
WESTMINSTER*   PTSUNNY   79  59  50 W12G21    29.68S

$$

MDZ501>502-282000-
WESTERN MARYLAND

CITY           SKY/WX    TMP DP  RH WIND       PRES   REMARKS
OAKLAND*       CLOUDY    55 N/A N/A W13G20    29.83S FOG
CUMBERLAND*    SUNNY     73  59  60 SW8G20    29.78S

$$

VAZ025>031-282000-
SHENANDOAH VALLEY

CITY           SKY/WX    TMP DP  RH WIND       PRES   REMARKS
WINCHESTER*    MOSUNNY   77  55  47 W22G30    29.72S
STAUNTON*      PTSUNNY   76  53  44 W14G22    29.81S

$$

WVZ021-048>050-054>055-282000-
EASTERN WEST VIRGINIA PANHANDLE

CITY           SKY/WX    TMP DP  RH WIND       PRES   REMARKS
MARTINSBURG    PTSUNNY   79  57  46 W23G37    29.71R
PETERSBURG*    CLOUDY    71  52  51 W16       29.81R

$$

VAZ036>039-050-282000-
CENTRAL FOOTHILLS

CITY           SKY/WX    TMP DP  RH WIND       PRES   REMARKS
CHARLOTTESVILL CLOUDY    77  57  50 NW3       29.76R
ORANGE*        PTSUNNY   79  55  44 W12       29.75S

$$

VAZ055>057-282000-
NORTH AND CENTRAL PIEDMONT

CITY           SKY/WX    TMP DP  RH WIND       PRES   REMARKS
FREDERICKSBRG* MOSUNNY   85  56  36 NW14G21   29.69S
STAFFORD*      PTSUNNY   82  55  38 W13G22    29.74S

$$

NCZ024-NYZ072-PAZ021-071-VAZ022-071-282000-
OTHER REGIONAL OBSERVATIONS

CITY           SKY/WX    TMP DP  RH WIND       PRES   REMARKS
NEW YORK CITY  PTSUNNY   79  61  53 VRB5      29.55S
PHILADELPHIA   PTSUNNY   83  59  44 W26       29.60S
PITTSBURGH     LGT RAIN  65  62  90 NW16      29.80R FOG
ROANOKE        PTSUNNY   77  55  46 W18G24    29.85S
RICHMOND       MOSUNNY   86  55  34 W15G25    29.72S
RALEIGH        MOSUNNY   85  61  44 W6        29.80F

$$

ANZ530>537-282000-
MARINE OBSERVATIONS

STATION/POSITION TIME  TEMP    WIND        PRES
                       AIR SEA DIR/SP/G
                 (UTC) (F)     (DEG/KT/KT) (MB)
THOMAS PT LIGHT  1900   81 79  270/ 19/ 21 1004.6R
BALT KEY BRIDGE  1900   85     280/ 19/ 22 1003.7F
COVE POINT       1900   81     310/ 15/ 20 1004.6S
LEWISETTA        1900   83 81  280/ 11/ 14 1004.9F
SOLOMONS ISLAND  1900      81                N/A
PINEY POINT      1900          320/ 16/ 18   N/A

$$




USA.gov is the U.S. government's official web portal to all federal, state and local government web resources and services.